Location: Ferchesar
(52.6477°N, 12.4298°E)
Time: 17:34:37
(UTC+01:00)

Explorer 7 - Pass Details

Date: 14 December 2021
Orbit: 483 x 674 km, 50.3° (Epoch: 23 January)

Event Time Altitude Azimuth Distance (km) Brightness Sun altitude
Rises 01:53:41 0° 211° (SSW) 2,959 - -54.0°
Reaches altitude 10° 01:56:27 10° 197° (SSW) 2,024 - -53.7°
Maximum altitude 02:00:03 23° 146° (SE) 1,343 - -53.3°
Drops below altitude 10° 02:03:32 10° 95° (E) 1,943 - -52.9°
Sets 02:06:07 0° 80° (E) 2,810 - -52.6°
